Retour au catalogue

FENGYUN 1C DEB

ActifSSO
NORAD 35175·DEBRIS·🇨🇳 China

Lancé May 10, 1999 depuis Taiyuan Satellite Launch Center

Loading…

Prochains Passages (prochaines 24 heures)

TLE

FraisSource: Space-Track

Époque: Sep 11, 2026, 18:32 UTC

1 35175U 99025DNF 26254.77271946  .00000362  00000-0  18140-3 0  9996
2 35175  98.5746 260.3396 0057197 207.0097 152.8101 14.21679956651140

Suivez FENGYUN 1C DEB en temps réel avec AllMySat

Download on the App Store